Regional Weather Roundup
Issued by NWS

Home | Current Version | Previous Version | Text Only | Print | Product List | Glossary Off
Versions: 1 2 3 4 5 6 7 8 9 10 11 12 13 14 15 16 17 18 19 20 21 22 23 24 25 26 27 28 29 30 31 32 33 34 35 36 37 38 39 40 41 42 43 44 45 46 47 48 49 50

000
ASUS43 KMKX 231221
RWRWI

WISCONSIN REGIONAL WEATHER ROUNDUP
NATIONAL WEATHER SERVICE MILWAUKEE/SULLIVAN WI
600 AM CST SUN NOV 23 2014

NOTE: "FAIR" INDICATES FEW OR NO CLOUDS BELOW 12,000 FEET WITH NO
SIGNIFICANT WEATHER AND/OR OBSTRUCTIONS TO VISIBILITY.

WIZ001-002-006>008-014>016-023>028-231300-
NORTHWEST WISCONSIN

CITY           SKY/WX    TMP DP  RH WIND       PRES   REMARKS
SUPERIOR ARPT  FOG       37  37 100 CALM      29.43S VSB 1/4
6HR MIN TEMP:  34; 6HR MAX TEMP:  37;

ASHLAND        CLOUDY    36  34  92 CALM      29.46S FOG
6HR MIN TEMP:  34; 6HR MAX TEMP:  37;

HAYWARD        FOG       42  42 100 S9        29.45S VSB 3/4
6HR MIN TEMP:  36; 6HR MAX TEMP:  42;

SIREN          FOG       42  42  98 S7        29.41F VSB 1/2
6HR MIN TEMP:  38; 6HR MAX TEMP:  44;

CUMBERLAND     FOG       39  37  93 S8        29.46F VSB<1/4 WCI  34
RICE LAKE      FOG       40  39  98 E5        29.48F VSB<1/4
6HR MIN TEMP:  36; 6HR MAX TEMP:  40;

CHETEK         FOG       42  42 100 E10       29.48S VSB 1/4
6HR MIN TEMP:  36; 6HR MAX TEMP:  42;

LADYSMITH      FOG       44  44  97 S8        29.51S VSB 1/4
6HR MIN TEMP:  37; 6HR MAX TEMP:  45;

EAU CLAIRE     CLOUDY    47  45  93 S13       29.50S
6HR MIN TEMP:  37; 6HR MAX TEMP:  47;

MENOMONIE      CLOUDY    48  47  99 CALM      29.48S FOG
6HR MIN TEMP:  36; 6HR MAX TEMP:  48;

NEW RICHMOND   CLOUDY    46  46 100 S7        29.44F FOG
6HR MIN TEMP:  39; 6HR MAX TEMP:  46;

OSCEOLA        FOG       43  43 100 S6        29.47S VSB 1/4
6HR MIN TEMP:  39; 6HR MAX TEMP:  46;

$$

WIZ003>005-009-010-017-018-231300-
NORTH CENTRAL WISCONSIN

CITY           SKY/WX    TMP DP  RH WIND       PRES   REMARKS
MANITOWISH WTR FOG       41  41 100 S9        29.50R VSB 1/2
6HR MIN TEMP:  34; 6HR MAX TEMP:  41;

ARBOR VITAE    LGT RAIN  43  42  95 S12G18    29.51S VSB 1/4
6HR MIN TEMP:  37; 6HR MAX TEMP:  43;

WOODRUFF       LGT RAIN  43  42  95 S12G18    29.51S VSB 1/4
6HR MIN TEMP:  37; 6HR MAX TEMP:  43;

RHINELANDER    FOG       43  43 100 S10       29.54F VSB 1/2
6HR MIN TEMP:  34; 6HR MAX TEMP:  43;

EAGLE RIVER    DRZL/FOG  41  41 100 S6        29.52F VSB 1
6HR MIN TEMP:  34; 6HR MAX TEMP:  41; 6HR PCP:  0.02;

LAND O LAKES   FOG       42  42 100 S6        29.53S VSB 3/4
6HR MIN TEMP:  35; 6HR MAX TEMP:  42;

PHILLIPS       FOG       42  42 100 S9        29.49F VSB 1/4
6HR MIN TEMP:  35; 6HR MAX TEMP:  43;

TOMAHAWK       FOG       41  40  97 CALM      29.54F VSB 1/4
6HR MIN TEMP:  34; 6HR MAX TEMP:  41;

MEDFORD        FOG       38  38 100 S10       29.53S VSB<1/4 WCI  32
6HR MIN TEMP:  36; 6HR MAX TEMP:  41;

MERRILL        FOG       44  44 100 S6        29.55S VSB 1/2
6HR MIN TEMP:  35; 6HR MAX TEMP:  44;

$$

WIZ029-030-035-036-043>047-231300-
CENTRAL WISCONSIN

CITY           SKY/WX    TMP DP  RH WIND       PRES   REMARKS
WAUSAU         LGT RAIN  44  44 100 S8        29.56S VSB 1/4
6HR MIN TEMP:  36; 6HR MAX TEMP:  44; 6HR PCP:  0.03;

MOSINEE        FOG       43  43 100 S9        29.58F VSB 1/8
MARSHFIELD     LGT RAIN  46  46 100 S9        29.56S VSB 1/2
6HR MIN TEMP:  39; 6HR MAX TEMP:  47; 6HR PCP: TRACE;

STEVENS POINT  CLOUDY    45  45 100 S12       29.59S FOG
6HR MIN TEMP:  37; 6HR MAX TEMP:  46;

WAUPACA        CLOUDY    49  48  95 S8        29.62F FOG
6HR MIN TEMP:  40; 6HR MAX TEMP:  49;

WAUTOMA        CLOUDY    48  48 100 S7        29.63F FOG
6HR MIN TEMP:  44; 6HR MAX TEMP:  49;

WISC RAPIDS    CLOUDY    49  46  90 S9        29.60S
6HR MIN TEMP:  44; 6HR MAX TEMP:  49;

CAMP DOUGLAS   CLOUDY    50  50 100 S10       29.58F
6HR MIN TEMP:  49; 6HR MAX TEMP:  52;

$$

WIZ011>013-019>022-031-037>040-048>050-231300-
NORTHEAST WISCONSIN

CITY           SKY/WX    TMP DP  RH WIND       PRES   REMARKS
ANTIGO         FOG       38  38 100 S12       29.58S VSB 1/4 WCI  30
6HR MIN TEMP:  34; 6HR MAX TEMP:  38;

SHAWANO        CLOUDY    48  47  95 S6        29.63S FOG
6HR MIN TEMP:  37; 6HR MAX TEMP:  48;

OCONTO         CLOUDY    42  42 100 S6        29.65R
6HR MIN TEMP:  36; 6HR MAX TEMP:  42;

STURGEON BAY   CLOUDY    46  43  87 S12       29.68R
6HR MIN TEMP:  41; 6HR MAX TEMP:  45;

GREEN BAY      CLOUDY    48  46  93 S10       29.65F FOG
6HR MIN TEMP:  42; 6HR MAX TEMP:  49;

MANITOWOC      FOG       45  45 100 S9        29.69S VSB 3/4
6HR MIN TEMP:  43; 6HR MAX TEMP:  46;

APPLETON         N/A     46  46 100 S10       29.65F FOG
CLINTONVILLE   CLOUDY    45  45 100 S8        29.62F FOG
OSHKOSH        CLOUDY    47  45  93 S12       29.65S FOG
6HR MIN TEMP:  47; 6HR MAX TEMP:  48;

$$

WIZ032>034-041-042-053>061-231300-
SOUTHWEST WISCONSIN

CITY           SKY/WX    TMP DP  RH WIND       PRES   REMARKS
LA CROSSE      CLOUDY    51  48  89 S15       29.54F
6HR MIN TEMP:  49; 6HR MAX TEMP:  53;

SPARTA         CLOUDY    50  48  93 S14       29.56F
6HR MIN TEMP:  50; 6HR MAX TEMP:  53;

VIROQUA        CLOUDY    48  48 100 S10G16    29.56F
6HR MIN TEMP:  48; 6HR MAX TEMP:  50;

BOSCOBEL       CLOUDY    51  48  89 S8        29.61F FOG
6HR MIN TEMP:  50; 6HR MAX TEMP:  54;

PRAIRIE DU CHI CLOUDY    51  48  90 S6        29.59F
6HR MIN TEMP:  50; 6HR MAX TEMP:  54;

PLATTEVILLE    CLOUDY    49  48  97 S10       29.64F
6HR MIN TEMP:  48; 6HR MAX TEMP:  50;

$$

WIZ056-057-062-063-064-067-068-231300-
SOUTH CENTRAL WISCONSIN

CITY           SKY/WX    TMP DP  RH WIND       PRES   REMARKS
REEDSBURG      CLOUDY    47  47  99 S10       29.61S FOG
6HR MIN TEMP:  47; 6HR MAX TEMP:  51;

BARABOO/DELLS  CLOUDY    47  46  95 S10       29.62S FOG
6HR MIN TEMP:  47; 6HR MAX TEMP:  51;

LONE ROCK      CLOUDY    53  48  83 S6        29.63S HAZE
6HR MIN TEMP:  51; 6HR MAX TEMP:  56;

MINERAL POINT  FOG       50  48  93 S9        29.63F VSB 1/2
MADISON        DRIZZLE   49  47  93 S10       29.66F FOG
6HR MIN TEMP:  47; 6HR MAX TEMP:  49; 6HR PCP: TRACE;

MIDDLETON      CLOUDY    50  50  98 S10       29.66S
6HR MIN TEMP:  49; 6HR MAX TEMP:  51;

WATERTOWN      CLOUDY    47  47 100 S10       29.67F FOG
6HR MIN TEMP:  46; 6HR MAX TEMP:  47;

MONROE         CLOUDY    48  46  93 S16       29.66S FOG
JANESVILLE     CLOUDY    52  48  87 S12       29.68F FOG
$$

WIZ051-052-058>065-066-070>072-231300-
SOUTHEAST WISCONSIN

CITY           SKY/WX    TMP DP  RH WIND       PRES   REMARKS
MILWAUKEE      CLOUDY    49  47  93 S13       29.71F FOG
6HR MIN TEMP:  46; 6HR MAX TEMP:  50;

WAUKESHA       CLOUDY    46  46 100 S5        29.70F FOG
MILWAUKEE/TIMM CLOUDY    48  46  93 SW10      29.71S FOG
RACINE         CLOUDY    50  46  86 S12G17    29.73F
6HR MIN TEMP:  49; 6HR MAX TEMP:  51;

BURLINGTON     CLOUDY    47  46  95 S13       29.70F FOG
6HR MIN TEMP:  47; 6HR MAX TEMP:  48;

KENOSHA        CLOUDY    50  46  86 S13       29.72F
6HR MIN TEMP:  49; 6HR MAX TEMP:  50;

FOND DU LAC    CLOUDY    48  46  93 S12       29.65F
6HR MIN TEMP:  47; 6HR MAX TEMP:  50;

SHEBOYGAN      CLOUDY    47  46  97 S7        29.68F FOG
6HR MIN TEMP:  41; 6HR MAX TEMP:  47;

WEST BEND      CLOUDY    50  45  81 S9        29.68S
JUNEAU         CLOUDY    47  46  98 S12       29.67F FOG
6HR MIN TEMP:  46; 6HR MAX TEMP:  47;

$$

LSZ147-162-231300-
LAKE SUPERIOR

STATION/POSITION TIME  TEMP    WIND        PRES    WAVE
                       AIR SEA DIR/SP/G            HT/PER
                 (UTC) (F)     (DEG/KT/KT) (MB)    (FT/S)
DEVILS ISLAND    1200   43     170/  6/ 11  997.2F
PORT WING        1140   38     310/  3/  4  997.0F
SAXON HARBOR     1100   45      CALM  /  6  997.6
$$

LMZ867-665-643>646-231300-
LAKE MICHIGAN

STATION/POSITION TIME  TEMP    WIND        PRES    WAVE


USA.gov is the U.S. government's official web portal to all federal, state and local government web resources and services.